When you browse on this site, cookies collect data to enhance your experience and personalize the content and advertising you see.
Visit our Privacy Policy to learn more. By continuing to use the site, you agree to this use of cookies and data.
  • Em Portugal
  • Lista de países
  • Para 7 dias
  • Temperatura da água
  • Mapa do tempo
  • Widgets de tempo
  • user-avatar
    Iniciar Sessão

    Previsão horária em Laszkar Gah

    Hoje, 26 Fevereiro, Quarta-feira

    Tempo Temperatura Precipitação Vento Pressão Humidade
    00:00 +19°C° 0 mm 3 m/s 695 mmHg 36%
    01:00 +18°C° 0 mm 4 m/s 694 mmHg 37%
    02:00 +18°C° 0 mm 4 m/s 694 mmHg 38%
    03:00 +18°C° 0 mm 4 m/s 694 mmHg 39%
    04:00 +17°C° 0 mm 4 m/s 694 mmHg 39%
    05:00 +17°C° 0 mm 4 m/s 694 mmHg 40%
    06:00 +17°C° 0 mm 4 m/s 694 mmHg 40%
    07:00 +17°C° 0 mm 4 m/s 694 mmHg 40%
    08:00 +17°C° 0 mm 5 m/s 694 mmHg 36%
    09:00 +20°C° 0 mm 5 m/s 695 mmHg 32%
    10:00 +22°C° 0 mm 6 m/s 695 mmHg 28%
    11:00 +23°C° 0 mm 6 m/s 695 mmHg 26%
    12:00 +26°C° 0 mm 6 m/s 694 mmHg 23%
    13:00 +27°C° 0 mm 6 m/s 694 mmHg 21%
    14:00 +27°C° 0 mm 6 m/s 693 mmHg 21%
    15:00 +27°C° 0 mm 6 m/s 693 mmHg 21%
    16:00 +27°C° 0 mm 6 m/s 692 mmHg 21%
    17:00 +26°C° 0 mm 6 m/s 692 mmHg 24%
    18:00 +24°C° 0 mm 6 m/s 692 mmHg 26%
    19:00 +23°C° 0 mm 6 m/s 692 mmHg 29%
    20:00 +22°C° 0 mm 6 m/s 692 mmHg 30%
    21:00 +22°C° 0 mm 5 m/s 692 mmHg 31%
    22:00 +21°C° 0 mm 5 m/s 692 mmHg 32%
    23:00 +21°C° 0 mm 5 m/s 692 mmHg 33%

    Amanhã, 27 Fevereiro, Quinta-feira

    Tempo Temperatura Precipitação Vento Pressão Humidade
    00:00 +21°C° 0 mm 4 m/s 691 mmHg 34%
    01:00 +21°C° 0 mm 4 m/s 691 mmHg 35%
    02:00 +20°C° 0 mm 3 m/s 691 mmHg 36%
    03:00 +20°C° 0 mm 3 m/s 691 mmHg 38%
    04:00 +20°C° 0 mm 3 m/s 691 mmHg 39%
    05:00 +19°C° 0 mm 3 m/s 691 mmHg 40%
    06:00 +19°C° 0 mm 3 m/s 692 mmHg 41%
    07:00 +19°C° 0 mm 3 m/s 692 mmHg 42%
    08:00 +21°C° 0 mm 4 m/s 692 mmHg 37%
    09:00 +23°C° 0 mm 5 m/s 693 mmHg 33%
    10:00 +24°C° 0 mm 6 m/s 693 mmHg 28%
    11:00 +26°C° 0 mm 6 m/s 693 mmHg 27%
    12:00 +27°C° 0 mm 7 m/s 692 mmHg 27%
    13:00 +27°C° 0 mm 8 m/s 692 mmHg 26%
    14:00 +26°C° 0 mm 8 m/s 692 mmHg 29%
    15:00 +24°C° 0 mm 9 m/s 691 mmHg 32%
    16:00 +24°C° 0 mm 9 m/s 691 mmHg 35%
    17:00 +22°C° 0 mm 9 m/s 691 mmHg 37%
    18:00 +20°C° 0 mm 8 m/s 692 mmHg 39%
    19:00 +18°C° 0 mm 7 m/s 692 mmHg 41%
    20:00 +17°C° 0 mm 7 m/s 692 mmHg 43%
    21:00 +16°C° 0 mm 6 m/s 692 mmHg 46%
    22:00 +15°C° 0 mm 6 m/s 692 mmHg 48%
    23:00 +14°C° 0 mm 6 m/s 692 mmHg 51%

    Depois de amanhã, 28 Fevereiro, Sexta-feira

    Tempo Temperatura Precipitação Vento Pressão Humidade
    00:00 +13°C° 0 mm 6 m/s 692 mmHg 53%
    01:00 +11°C° 0 mm 6 m/s 692 mmHg 56%
    02:00 +10°C° 0 mm 6 m/s 692 mmHg 56%
    03:00 +9°C° 0 mm 5 m/s 692 mmHg 57%
    04:00 +8°C° 0 mm 5 m/s 692 mmHg 57%
    05:00 +8°C° 0 mm 4 m/s 692 mmHg 57%
    06:00 +8°C° 0 mm 4 m/s 693 mmHg 58%
    07:00 +8°C° 0 mm 3 m/s 694 mmHg 58%
    08:00 +9°C° 0 mm 3 m/s 694 mmHg 55%
    09:00 +10°C° 0 mm 3 m/s 694 mmHg 52%
    10:00 +11°C° 0 mm 3 m/s 694 mmHg 48%
    11:00 +12°C° 0 mm 3 m/s 694 mmHg 46%
    12:00 +14°C° 0 mm 2 m/s 694 mmHg 43%
    13:00 +15°C° 0 mm 2 m/s 693 mmHg 40%
    14:00 +15°C° 0 mm 2 m/s 693 mmHg 39%
    15:00 +16°C° 0 mm 2 m/s 693 mmHg 38%
    16:00 +16°C° 0 mm 1 m/s 693 mmHg 37%
    17:00 +16°C° 0 mm 1 m/s 693 mmHg 39%
    18:00 +15°C° 0 mm 1 m/s 693 mmHg 41%
    19:00 +15°C° 0 mm 1 m/s 693 mmHg 43%
    20:00 +15°C° 0 mm 1 m/s 693 mmHg 45%
    21:00 +14°C° 0 mm 1 m/s 693 mmHg 47%
    22:00 +14°C° 0 mm 1 m/s 693 mmHg 49%
    23:00 +13°C° 0 mm 1 m/s 693 mmHg 50%

    29 Fevereiro, Sábado

    Tempo Temperatura Precipitação Vento Pressão Humidade
    00:00 +12°C° 0 mm 0 m/s 693 mmHg 52%
    01:00 +11°C° 0 mm 0 m/s 692 mmHg 54%
    02:00 +11°C° 0 mm 0 m/s 692 mmHg 55%
    03:00 +10°C° 0 mm 0 m/s 692 mmHg 57%
    04:00 +10°C° 0 mm 0 m/s 692 mmHg 58%
    05:00 +10°C° 0 mm 0 m/s 692 mmHg 57%
    06:00 +11°C° 0 mm 0 m/s 692 mmHg 56%
    07:00 +12°C° 0 mm 1 m/s 693 mmHg 55%
    08:00 +12°C° 0 mm 0 m/s 693 mmHg 50%
    09:00 +13°C° 0 mm 0 m/s 694 mmHg 45%
    10:00 +15°C° 0 mm 0 m/s 694 mmHg 39%
    11:00 +16°C° 0 mm 0 m/s 694 mmHg 36%
    12:00 +17°C° 0 mm 0 m/s 693 mmHg 33%
    13:00 +20°C° 0 mm 1 m/s 693 mmHg 30%
    14:00 +20°C° 0 mm 1 m/s 692 mmHg 29%
    15:00 +19°C° 0 mm 0 m/s 692 mmHg 28%
    16:00 +19°C° 0 mm 0 m/s 692 mmHg 26%
    17:00 +20°C° 0 mm 1 m/s 692 mmHg 29%
    18:00 +20°C° 0 mm 1 m/s 692 mmHg 32%
    19:00 +19°C° 0 mm 1 m/s 693 mmHg 35%
    20:00 +18°C° 0 mm 1 m/s 693 mmHg 36%
    21:00 +18°C° 0 mm 1 m/s 693 mmHg 37%
    22:00 +16°C° 0 mm 1 m/s 693 mmHg 38%
    23:00 +16°C° 0 mm 1 m/s 693 mmHg 39%

    1 Março, Domingo

    Tempo Temperatura Precipitação Vento Pressão Humidade
    00:00 +16°C° 0 mm 2 m/s 692 mmHg 40%
    01:00 +15°C° 0 mm 2 m/s 692 mmHg 41%
    02:00 +15°C° 0 mm 2 m/s 692 mmHg 42%
    03:00 +15°C° 0 mm 2 m/s 692 mmHg 43%
    04:00 +14°C° 0 mm 2 m/s 691 mmHg 45%
    05:00 +14°C° 0 mm 2 m/s 692 mmHg 45%
    06:00 +14°C° 0 mm 3 m/s 692 mmHg 45%
    07:00 +14°C° 0 mm 3 m/s 692 mmHg 44%
    08:00 +17°C° 0 mm 4 m/s 693 mmHg 39%
    09:00 +19°C° 0 mm 4 m/s 694 mmHg 33%
    10:00 +20°C° 0 mm 5 m/s 694 mmHg 27%
    11:00 +21°C° 0 mm 4 m/s 694 mmHg 24%
    12:00 +22°C° 0 mm 4 m/s 693 mmHg 21%
    13:00 +24°C° 0 mm 3 m/s 693 mmHg 18%
    14:00 +24°C° 0 mm 3 m/s 693 mmHg 17%
    15:00 +24°C° 0 mm 2 m/s 692 mmHg 17%
    16:00 +25°C° 0 mm 2 m/s 692 mmHg 16%
    17:00 +24°C° 0 mm 2 m/s 692 mmHg 18%
    18:00 +23°C° 0 mm 2 m/s 692 mmHg 21%
    19:00 +21°C° 0 mm 3 m/s 692 mmHg 23%
    20:00 +20°C° 0 mm 3 m/s 692 mmHg 25%
    21:00 +19°C° 0 mm 3 m/s 692 mmHg 26%
    22:00 +19°C° 0 mm 4 m/s 692 mmHg 28%
    23:00 +18°C° 0 mm 4 m/s 691 mmHg 30%

    2 Março, Segunda-feira

    Tempo Temperatura Precipitação Vento Pressão Humidade
    00:00 +18°C° 0 mm 4 m/s 691 mmHg 31%
    01:00 +17°C° 0 mm 4 m/s 691 mmHg 32%
    02:00 +17°C° 0 mm 4 m/s 690 mmHg 33%
    03:00 +15°C° 0 mm 4 m/s 690 mmHg 34%
    04:00 +15°C° 0 mm 4 m/s 690 mmHg 35%
    05:00 +15°C° 0 mm 5 m/s 690 mmHg 36%
    06:00 +15°C° 0 mm 5 m/s 690 mmHg 37%
    07:00 +15°C° 0 mm 5 m/s 691 mmHg 37%
    08:00 +17°C° 0 mm 5 m/s 691 mmHg 33%
    09:00 +20°C° 0 mm 5 m/s 692 mmHg 29%
    10:00 +22°C° 0 mm 5 m/s 692 mmHg 24%
    11:00 +23°C° 0 mm 5 m/s 692 mmHg 22%
    12:00 +26°C° 0 mm 5 m/s 692 mmHg 19%
    13:00 +27°C° 0 mm 5 m/s 691 mmHg 16%
    14:00 +27°C° 0 mm 4 m/s 691 mmHg 16%
    15:00 +27°C° 0 mm 4 m/s 691 mmHg 15%
    16:00 +27°C° 0 mm 3 m/s 690 mmHg 14%
    17:00 +26°C° 0 mm 3 m/s 690 mmHg 17%
    18:00 +24°C° 0 mm 2 m/s 690 mmHg 20%
    19:00 +23°C° 0 mm 1 m/s 690 mmHg 23%
    20:00 +21°C° 0 mm 2 m/s 690 mmHg 24%
    21:00 +21°C° 0 mm 2 m/s 690 mmHg 26%
    22:00 +20°C° 0 mm 3 m/s 690 mmHg 27%
    23:00 +19°C° 0 mm 3 m/s 690 mmHg 29%
    Mostrar mais